Weather History for Creston, IA

Change the Weather History Date:

Monday, May 20, 2013

  Actual Average Record
Temperature  
Mean Temperature 68 °F -  
Max Temperature 77 °F 75 °F 90 °F (1955)
Min Temperature 59 °F 50 °F 37 °F (1954)
Cooling Degree Days 3    
Growing Degree Days 18 (Base 50)    
Moisture  
Dew Point 59 °F    
Average Humidity 78    
Maximum Humidity 100    
Minimum Humidity 50    
Precipitation  
Precipitation 0.04 in - - ()
Sea Level Pressure  
Sea Level Pressure 29.63 in    
Wind  
Wind Speed 13 mph (SSW)    
Max Wind Speed 24 mph    
Max Gust Speed 31 mph    
Visibility 10 miles    
Events Rain    
Averages and records for this station are not official NWS values.
T = Trace of Precipitation, MM = Missing Value Source: NWS Daily Summary

Daily Weather History Graph

Daily Weather History Graph

Search for Another Location

Airport:

Trip Planner

Search our weather history database for the weather conditions in past years. The results will help you decide how hot, cold, wet, or windy it might be!

Date:

Astronomy

May. 20, 2013 Rise Set
Actual Time 5:54 AM CDT 8:33 PM CDT
Civil Twilight 5:23 AM CDT 9:05 PM CDT
Nautical Twilight 4:43 AM CDT 9:45 PM CDT
Astronomical Twilight 3:58 AM CDT 10:30 PM CDT
Moon 3:39 PM CDT (5/20) 2:52 AM CDT (5/20)
Length of Visible Light 15h 42m
Length of Day
14h 38m
Waxing Gibbous, 75% of the Moon is Illuminated
May 20
Waxing Gibbous
May 24
Full
May 31
Last Quarter
Jun 8
New
Jun 16
First Quarter

Hourly Weather History & Observations

Time (CDT) Temp. Dew Point Humidity Pressure Visibility Wind Dir Wind Speed Gust Speed Precip Events Conditions
12:15 AM 59.0 °F 59.0 °F 100% 29.61 in 10.0 mi Calm Calm - N/A   Overcast
12:35 AM 60.8 °F 59.0 °F 94% 29.64 in 10.0 mi Calm Calm - N/A   Overcast
12:55 AM 60.8 °F 59.0 °F 94% 29.63 in 10.0 mi East 9.2 mph - N/A   Overcast
1:15 AM 60.8 °F 59.0 °F 94% 29.59 in 9.0 mi East 13.8 mph - N/A   Overcast
1:35 AM 60.8 °F 59.0 °F 94% 29.62 in 10.0 mi South 11.5 mph - N/A   Mostly Cloudy
1:55 AM 60.8 °F 59.0 °F 94% 29.62 in 10.0 mi SSE 13.8 mph 19.6 mph N/A   Mostly Cloudy
2:15 AM 60.8 °F 59.0 °F 94% 29.60 in 10.0 mi SSE 12.7 mph - N/A   Partly Cloudy
2:35 AM 60.8 °F 59.0 °F 94% 29.59 in 10.0 mi South 12.7 mph - N/A   Clear
3:15 AM 59.0 °F 57.2 °F 94% 29.59 in 10.0 mi South 16.1 mph 21.9 mph N/A   Clear
3:35 AM 59.0 °F 57.2 °F 94% 29.58 in 10.0 mi South 13.8 mph 19.6 mph N/A   Clear
3:55 AM 59.0 °F 57.2 °F 94% 29.59 in 10.0 mi South 13.8 mph - N/A   Clear
4:35 AM 59.0 °F 57.2 °F 94% 29.60 in 10.0 mi South 18.4 mph 25.3 mph N/A   Clear
4:55 AM 59.0 °F 57.2 °F 94% 29.60 in 10.0 mi SSW 17.3 mph 24.2 mph N/A   Clear
5:15 AM 59.0 °F 57.2 °F 94% 29.61 in 10.0 mi SSW 16.1 mph - N/A   Clear
5:35 AM 59.0 °F 57.2 °F 94% 29.62 in 10.0 mi SSW 17.3 mph - N/A   Clear
5:55 AM 59.0 °F 57.2 °F 94% 29.61 in 10.0 mi SSW 18.4 mph 26.5 mph N/A   Clear
6:15 AM 59.0 °F 57.2 °F 94% 29.61 in 9.0 mi SSW 19.6 mph 27.6 mph N/A   Clear
6:35 AM 59.0 °F 57.2 °F 94% 29.62 in 9.0 mi SSW 18.4 mph 25.3 mph N/A   Clear
7:15 AM 60.8 °F 57.2 °F 88% 29.62 in 10.0 mi SSW 19.6 mph 26.5 mph N/A   Clear
7:35 AM 60.8 °F 57.2 °F 88% 29.63 in 10.0 mi SSW 18.4 mph 27.6 mph N/A   Clear
7:55 AM 62.6 °F 57.2 °F 82% 29.64 in 10.0 mi SW 19.6 mph 28.8 mph N/A   Clear
8:15 AM 62.6 °F 57.2 °F 82% 29.65 in 10.0 mi SW 20.7 mph 29.9 mph N/A   Clear
8:35 AM 62.6 °F 57.2 °F 82% 29.66 in 10.0 mi SW 17.3 mph 25.3 mph N/A   Clear
8:55 AM 62.6 °F 55.4 °F 77% 29.66 in 10.0 mi SW 24.2 mph 31.1 mph N/A   Clear
9:15 AM 64.4 °F 57.2 °F 77% 29.67 in 10.0 mi SW 23.0 mph - N/A   Partly Cloudy
9:35 AM 64.4 °F 57.2 °F 77% 29.67 in 10.0 mi SW 19.6 mph 26.5 mph N/A   Scattered Clouds
9:55 AM 64.4 °F 59.0 °F 83% 29.68 in 10.0 mi SW 21.9 mph 28.8 mph N/A   Mostly Cloudy
10:35 AM 66.2 °F 59.0 °F 78% 29.69 in 10.0 mi WSW 20.7 mph 27.6 mph N/A   Scattered Clouds
10:55 AM 66.2 °F 59.0 °F 78% 29.70 in 10.0 mi WSW 19.6 mph 27.6 mph N/A   Scattered Clouds
11:15 AM 68.0 °F 59.0 °F 73% 29.70 in 10.0 mi WSW 18.4 mph 25.3 mph N/A   Mostly Cloudy
11:35 AM 68.0 °F 59.0 °F 73% 29.71 in 10.0 mi SW 19.6 mph 25.3 mph N/A   Overcast
11:55 AM 68.0 °F 59.0 °F 73% 29.71 in 10.0 mi SW 17.3 mph 24.2 mph N/A   Mostly Cloudy
12:15 PM 68.0 °F 60.8 °F 78% 29.71 in 10.0 mi SW 16.1 mph 23.0 mph N/A   Scattered Clouds
12:35 PM 69.8 °F 60.8 °F 73% 29.71 in 10.0 mi SSW 18.4 mph - N/A   Mostly Cloudy
1:15 PM 71.6 °F 59.0 °F 64% 29.70 in 10.0 mi SSW 20.7 mph - N/A   Scattered Clouds
1:55 PM 69.8 °F 59.0 °F 68% 29.70 in 10.0 mi SW 18.4 mph - N/A   Mostly Cloudy
2:15 PM 71.6 °F 59.0 °F 64% 29.70 in 10.0 mi SW 16.1 mph 24.2 mph N/A   Partly Cloudy
2:35 PM 73.4 °F 60.8 °F 65% 29.69 in 10.0 mi SW 20.7 mph - N/A   Partly Cloudy
2:55 PM 73.4 °F 60.8 °F 65% 29.69 in 10.0 mi SW 19.6 mph 25.3 mph N/A   Partly Cloudy
3:15 PM 75.2 °F 60.8 °F 61% 29.68 in 10.0 mi SW 16.1 mph 21.9 mph N/A   Clear
3:35 PM 75.2 °F 60.8 °F 61% 29.67 in 10.0 mi SW 12.7 mph 21.9 mph N/A   Scattered Clouds
3:55 PM 77.0 °F 59.0 °F 54% 29.65 in 10.0 mi SSW 17.3 mph 27.6 mph N/A   Scattered Clouds
4:15 PM 77.0 °F 57.2 °F 50% 29.64 in 10.0 mi SW 20.7 mph 26.5 mph N/A   Partly Cloudy
4:35 PM 77.0 °F 59.0 °F 54% 29.63 in 10.0 mi SSW 19.6 mph - N/A   Partly Cloudy
4:55 PM 77.0 °F 59.0 °F 54% 29.63 in 10.0 mi SW 15.0 mph 21.9 mph N/A   Scattered Clouds
5:15 PM 77.0 °F 60.8 °F 57% 29.62 in 10.0 mi South 18.4 mph 24.2 mph N/A   Mostly Cloudy
5:35 PM 75.2 °F 59.0 °F 57% 29.62 in 10.0 mi South 19.6 mph - N/A   Mostly Cloudy
5:55 PM 77.0 °F 59.0 °F 54% 29.61 in 10.0 mi South 18.4 mph 24.2 mph N/A   Mostly Cloudy
6:15 PM 75.2 °F 60.8 °F 61% 29.59 in 10.0 mi South 15.0 mph 23.0 mph N/A   Mostly Cloudy
6:35 PM 73.4 °F 62.6 °F 69% 29.58 in 10.0 mi SW 16.1 mph - N/A   Overcast
6:55 PM 73.4 °F 62.6 °F 69% 29.60 in 9.0 mi Variable 3.5 mph 16.1 mph 0.01 in   Overcast
7:15 PM 68.0 °F 64.4 °F 88% 29.61 in 10.0 mi SSE 4.6 mph 12.7 mph N/A Rain Heavy Rain
7:35 PM 69.8 °F 62.6 °F 78% 29.61 in 4.0 mi SW 8.1 mph - N/A   Haze
7:55 PM 69.8 °F 60.8 °F 73% 29.61 in 8.0 mi SW 10.4 mph - 0.03 in   Scattered Clouds
8:15 PM 69.8 °F 60.8 °F 73% 29.60 in 10.0 mi SSW 6.9 mph 12.7 mph N/A   Clear
8:35 PM 68.0 °F 62.6 °F 83% 29.60 in 10.0 mi South 8.1 mph - N/A   Clear
9:15 PM 64.4 °F 60.8 °F 88% 29.59 in 10.0 mi SW 9.2 mph - N/A   Clear
9:35 PM 64.4 °F 59.0 °F 83% 29.59 in 10.0 mi SW 10.4 mph - N/A   Clear
9:55 PM 64.4 °F 57.2 °F 77% 29.58 in 10.0 mi SW 8.1 mph - N/A   Clear
10:15 PM 62.6 °F 57.2 °F 82% 29.58 in 10.0 mi SW 8.1 mph - N/A   Clear
10:35 PM 62.6 °F 55.4 °F 77% 29.60 in 10.0 mi SW 8.1 mph - N/A   Clear
10:55 PM 62.6 °F 55.4 °F 77% 29.61 in 10.0 mi SW 10.4 mph - N/A   Clear
11:15 PM 62.6 °F 55.4 °F 77% 29.61 in 10.0 mi SW 10.4 mph - N/A   Clear
11:35 PM 62.6 °F 55.4 °F 77% 29.62 in 10.0 mi SW 11.5 mph - N/A   Clear
11:55 PM 62.6 °F 55.4 °F 77% 29.62 in 10.0 mi SW 10.4 mph - N/A   Clear